Regional Weather Roundup
Issued by NWS

Home | Current Version | Previous Version | Text Only | Print | Product List | Glossary On
Versions: 1 2 3 4 5 6 7 8 9 10 11 12 13 14 15 16 17 18 19 20 21 22 23 24 25 26 27 28 29 30 31 32 33 34 35 36 37 38 39 40 41 42 43 44 45 46 47 48 49 50
000
ASUS45 KABQ 270610
RWRNM
NEW MEXICO REGIONAL WEATHER ROUNDUP
NATIONAL WEATHER SERVICE ALBUQUERQUE NM
1200 AM MDT TUE JUN 27 2017

NOTE: "FAIR" MEANS FEW OR NO CLOUDS BELOW 12,000 FEET AGL WITH NO
       SIGNIFICANT WEATHER OR OBSTRUCTIONS TO VISION.

      THIS PRODUCT IS RELEASED AS TWO VERSIONS.  ONE VERSION NEAR
      THE TOP OF THE HOUR CONTAINING PRELIMINARY DATA FROM ALBUQUERQUE
      AND OTHER STATIONS.  A FINAL VERSION WITH ADDITIONAL DATA IS
      ISSUED ABOUT 10 MINUTES AFTER THE HOUR.

NMZ501-503-504-510>518-270700-
NORTHWEST PLATEAU/NORTHCENTRAL MOUNTAINS

CITY           SKY/WX    TMP DP  RH WIND       PRES   REMARKS
FARMINGTON     FAIR      76  38  25 SE12      30.10R
6HR MIN TEMP:  74; 6HR MAX TEMP:  93;

LOS ALAMOS     FAIR      63  41  44 S12       30.32F
SANTA FE       FAIR      61  50  67 S10       30.28R
6HR MIN TEMP:  57; 6HR MAX TEMP:  74; 6HR PCP:  0.02;

TAOS           FAIR      63  36  36 E6        30.33R
ANGEL FIRE     FAIR      46  43  91 SW3       30.45R

$$
NMZ402-403-502-505>509-270700-
WESTCENTRAL MOUNTAINS/SOUTHWEST MOUNTAINS

CITY           SKY/WX    TMP DP  RH WIND       PRES   REMARKS
GALLUP         FAIR      75  40  28 SE12G17   30.23R
6HR MIN TEMP:  74; 6HR MAX TEMP:  88;

GRANTS         FAIR      65  44  46 SE15      30.30F
SILVER CITY    FAIR      65  58  75 E3        30.22R

$$
NMZ407-409-411-412-270700-
SOUTHERN DESERTS

CITY           SKY/WX    TMP DP  RH WIND       PRES   REMARKS
DEMING         FAIR      78  48  34 NE9       30.13R
6HR MIN TEMP:  76; 6HR MAX TEMP:  91;

LAS CRUCES     FAIR      78  48  34 NE6       30.16S
HOLLOMAN AFB   FAIR      76  49  38 SE8       30.15S
ALAMOGORDO     FAIR      75  52  43 S7        30.16R
T OR C         FAIR      70  51  51 N12       30.19R
6HR MIN TEMP:  69; 6HR MAX TEMP:  76; 6HR PCP:  0.02;


$$
NMZ519>523-270700-
CENTRAL VALLEYS/CENTRAL HIGHLANDS

CITY           SKY/WX    TMP DP  RH WIND       PRES   REMARKS
ALBUQUERQUE    FAIR      69  47  45 E5        30.22S
6HR MIN TEMP:  64; 6HR MAX TEMP:  88; 6HR PCP:  0.48;

DOUBLE EAGLE   FAIR      67  44  43 SW14      30.25F
MORIARTY ARPT  FAIR      58  53  83 SE6       30.31R
6HR MIN TEMP:  58; 6HR MAX TEMP:  71; 6HR PCP:  0.03;

CLINES CORNERS FAIR      54  46  74 W9        30.33F
6HR MIN TEMP:  53; 6HR MAX TEMP:  71; 6HR PCP: TRACE;

BELEN          FAIR      69  44  41 S12       30.22F
6HR MIN TEMP:  69; 6HR MAX TEMP:  89;

SOCORRO        FAIR      67  47  48 CALM      30.21F
6HR MIN TEMP:  67; 6HR MAX TEMP:  88;


$$
NMZ524>526-539-540-270700-
SOUTHCENTRAL MOUNTAINS

CITY           SKY/WX    TMP DP  RH WIND       PRES   REMARKS
RUIDOSO        FAIR      55  48  76 W7        30.34F

$$
NMZ527>531-270700-
NORTHEAST HIGHLANDS/NORTHEAST PLAINS

CITY           SKY/WX    TMP DP  RH WIND       PRES   REMARKS
LAS VEGAS      FAIR      54  48  80 N12       30.33R
6HR MIN TEMP:  54; 6HR MAX TEMP:  72;

RATON          FAIR      61  45  55 N7        30.30S
6HR MIN TEMP:  61; 6HR MAX TEMP:  75;

CLAYTON        FAIR      67  47  48 VRB6      30.21R
6HR MIN TEMP:  63; 6HR MAX TEMP:  80; 6HR PCP:  0.03;


$$
NMZ532>537-270700-
EASTCENTRAL PLAINS

CITY           SKY/WX    TMP DP  RH WIND       PRES   REMARKS
SANTA ROSA     FAIR      66  47  51 S3        30.20S
TUCUMCARI      FAIR      70  61  73 SW10G18   30.15R
6HR MIN TEMP:  70; 6HR MAX TEMP:  89;

CANNON AFB     FAIR      66  66 100 S5        30.22S
6HR MIN TEMP:  66; 6HR MAX TEMP:  81;

CLOVIS AIRPORT FAIR      65  61  87 S7        30.21S

$$
NMZ028-029-538-270700-
SOUTHEAST PLAINS

CITY           SKY/WX    TMP DP  RH WIND       PRES   REMARKS
ROSWELL        FAIR      70  56  61 E7        30.11F
6HR MIN TEMP:  66; 6HR MAX TEMP:  88; 6HR PCP:  0.01;

ARTESIA        DRIZZLE   66  66 100 SE14      30.19F
CARLSBAD       TSTM      67  66  97 NW25G35   30.17R
6HR MIN TEMP:  68; 6HR MAX TEMP:  86; 6HR PCP:  0.01;

HOBBS          FAIR      68  68 100 CALM      30.19S


$$




USA.gov is the U.S. government's official web portal to all federal, state and local government web resources and services.